Dewpoint
55 55 55 55 55 55 55 55 56 56 56 56 56 57 57 57 57 56 56 55 56 56 55 56 55 55 55 55 55 56 56 52 50 47 48 43 51 67 65 64 63 63 62 51 53 54 53 52 48 51 56 57 57 57 62 64 68 67 63 61 54 56 58 58 59 58 59 60 61 64 64 62 61 62 62 60 60 59 57 55 55 53 49 50 52 56 57 58
55 55 55 55 55 56 56 56 56 56 56 56 56 56 57 57 56 56 56 55 55 55 55 55 55 55 55 55 56 56 54 51 48 43 39 52 64 67 64 63 64 59 62 48 52 52 49 46 43 51 56 55 57 59 63 64 65 61 59 59 56 60 64 64 61 61 59 59 62 63 63 60 61 63 60 59 58 59 57 55 54 51 51 52 55 55 57 58
55 55 56 56 56 56 56 56 56 57 56 56 56 56 56 56 56 56 56 56 55 55 55 55 55 54 55 55 56 56 54 50 47 42 37 63 66 65 67 65 64 61 55 47 52 49 45 42 40 51 56 54 58 59 63 63 65 62 61 58 58 60 64 65 66 64 61 60 62 61 60 60 59 57 57 59 57 56 53 53 52 51 52 53 54 55 56 57
56 56 56 56 56 56 56 56 56 56 56 56 56 56 56 56 56 56 56 55 55 55 55 55 55 55 55 56 56 55 51 49 40 38 47 67 64 65 67 67 65 59 50 48 51 47 43 39 39 50 55 54 58 60 62 63 62 63 61 61 61 62 62 62 64 66 64 64 62 61 60 57 57 57 59 57 53 54 52 54 52 52 53 54 54 54 55 56
56 56 56 56 56 56 56 56 56 56 56 56 56 56 56 56 56 56 56 55 54 55 55 55 55 55 55 56 57 53 51 30 30 48 58 66 69 67 67 66 65 45 42 49 48 45 41 37 38 46 54 53 55 57 59 64 62 60 60 61 63 63 64 64 66 65 62 64 62 60 56 55 54 58 57 55 53 50 51 54 54 54 55 53 53 54 54 55
55 55 55 55 55 56 56 56 56 56 56 56 56 56 56 55 55 55 55 54 54 54 54 55 55 55 56 57 54 52 44 9 28 51 67 66 68 67 66 66 65 46 39 49 45 41 40 37 37 43 51 53 54 55 57 60 63 61 59 61 64 62 63 65 64 65 63 63 62 59 58 57 55 55 54 56 54 54 52 54 55 55 54 53 53 54 54 55
55 55 55 55 55 55 56 56 55 56 56 56 56 55 55 55 55 55 55 54 54 54 55 55 55 55 56 56 51 49 43 30 25 60 68 66 66 64 64 63 64 52 42 48 42 38 37 34 37 41 48 51 53 54 56 60 63 61 60 64 64 65 65 66 66 66 61 64 62 62 59 55 54 54 58 56 54 52 53 54 55 55 53 53 53 53 54 55
55 55 55 55 55 55 55 55 55 55 56 55 55 55 55 55 55 55 55 55 55 54 55 55 55 56 56 52 49 48 39 20 42 61 70 66 61 58 59 42 41 48 45 44 40 37 33 33 35 40 46 50 54 56 58 56 56 61 60 63 64 65 67 65 65 64 63 62 63 61 56 55 56 58 57 54 52 53 54 55 54 54 53 52 52 53 54 55
55 55 55 55 55 55 55 55 55 56 56 55 55 55 55 54 54 54 54 54 54 54 55 55 55 55 56 51 43 34 23 40 43 58 61 52 46 45 38 34 37 45 44 42 41 37 32 32 34 40 47 52 54 53 56 52 54 61 62 62 63 65 66 65 66 68 65 63 64 59 56 57 60 60 58 52 53 54 54 54 54 53 52 52 52 53 54 54
55 55 56 55 55 55 55 55 56 56 56 55 55 55 54 54 54 54 54 54 54 54 54 55 56 56 53 50 44 32 34 41 43 51 51 48 39 37 31 30 33 42 39 38 40 37 32 30 33 40 52 54 54 51 52 50 52 61 62 62 64 65 65 66 64 65 65 65 64 61 57 60 59 58 55 53 53 54 54 54 53 53 52 52 52 53 54 54
55 55 55 56 55 55 55 55 55 55 55 55 55 54 54 54 54 54 54 54 54 54 55 56 56 56 50 47 38 28 33 39 39 46 51 44 36 31 26 31 34 40 35 34 38 38 33 31 32 45 54 52 53 48 45 45 54 60 60 62 64 65 67 66 65 66 65 65 64 62 62 59 58 57 55 52 53 53 53 54 54 53 53 53 52 53 54 53
55 55 55 55 55 55 55 55 55 55 55 55 54 54 53 54 53 53 53 54 54 54 55 56 56 53 51 44 37 27 26 27 41 48 42 38 33 30 28 35 37 40 32 30 34 36 34 31 31 43 50 50 47 43 43 44 49 60 60 60 62 64 64 66 65 64 66 64 66 64 61 59 56 58 57 53 52 53 53 53 53 53 53 52 53 53 54 54
56 55 55 55 55 55 55 55 55 55 55 54 54 54 54 54 54 54 54 53 55 55 55 55 56 53 50 39 35 20 20 24 38 46 40 38 39 33 33 35 35 36 32 31 32 33 31 29 34 39 51 48 44 41 52 49 55 62 60 59 60 61 60 65 66 65 64 64 66 64 54 54 58 57 57 55 51 52 53 53 52 53 53 53 53 53 54 54
56 55 55 55 55 55 55 55 55 55 54 54 54 54 53 53 53 53 54 54 55 55 56 57 54 52 49 42 21 20 20 32 44 42 41 44 41 40 39 33 33 38 37 34 32 29 27 28 36 44 53 50 39 45 45 56 59 57 60 59 56 55 56 64 64 64 62 66 66 64 53 54 58 58 56 52 51 52 52 52 51 52 53 53 53 53 54 53
56 56 56 55 55 55 55 55 55 54 54 54 54 53 53 53 53 53 54 54 56 56 57 57 54 52 46 37 23 35 51 34 42 37 37 37 37 37 34 32 35 38 38 36 32 29 30 31 36 46 51 52 47 43 45 54 60 58 57 54 58 54 58 63 65 64 62 63 66 61 56 54 56 56 56 54 52 51 52 51 51 51 52 52 53 52 53 54
56 56 56 56 55 55 55 55 55 54 54 53 53 53 53 54 54 54 55 55 56 57 56 55 54 47 40 29 35 44 35 36 40 33 30 29 30 27 32 30 33 36 37 35 34 33 34 32 35 46 51 49 44 41 44 52 53 60 54 53 55 52 58 59 62 65 64 63 64 61 57 59 56 56 56 53 54 51 51 52 52 52 52 52 52 52 54 54
56 56 56 56 55 55 55 55 54 54 53 53 53 54 54 55 56 56 56 57 56 56 55 52 46 45 39 24 19 27 31 37 38 33 32 27 25 30 29 32 32 33 33 33 34 35 31 28 35 45 47 45 43 40 43 47 51 57 59 51 57 51 57 56 62 64 63 63 62 62 61 58 56 54 55 55 51 52 51 51 52 52 52 53 52 52 53 54
56 56 56 55 55 55 55 55 54 54 53 52 53 55 54 56 57 57 57 57 56 52 50 50 47 42 34 17 14 27 36 37 36 33 33 29 31 27 32 32 33 31 28 27 27 27 26 25 39 43 43 44 43 39 39 45 48 48 53 48 54 55 54 56 57 60 63 62 61 60 60 60 57 54 55 54 56 53 52 51 50 52 52 53 52 53 54 54
55 55 56 56 55 55 54 54 54 54 53 54 55 55 57 57 57 55 53 53 50 52 47 43 40 31 15 17 31 32 34 38 37 34 33 33 30 23 24 25 30 30 25 23 21 21 24 24 39 42 40 41 41 39 39 47 52 53 54 53 52 54 53 57 57 62 62 59 60 60 60 60 59 54 55 54 53 53 53 52 52 53 53 53 52 53 53 55
55 55 55 55 55 55 54 54 54 53 53 54 53 55 54 52 51 46 51 49 44 35 27 27 25 26 24 23 27 34 39 40 36 35 34 34 29 23 22 20 22 24 22 19 18 16 20 25 35 38 39 39 40 38 40 46 44 51 56 55 55 53 56 58 60 63 62 61 60 60 60 60 60 57 57 55 54 55 53 53 52 54 55 54 53 54 54 56
56 55 55 55 55 54 54 53 53 53 52 52 53 51 42 31 27 26 29 33 44 36 27 26 25 24 29 29 30 30 34 36 37 35 34 34 31 26 24 18 16 15 18 18 13 13 18 24 32 37 39 41 39 37 42 45 47 46 57 52 55 55 56 59 59 63 65 61 59 61 60 60 61 62 58 59 58 56 53 53 53 55 55 54 55 56 56 56
55 55 55 55 55 54 53 53 53 52 51 53 52 45 36 32 32 33 33 29 31 26 25 24 27 25 31 29 31 32 33 33 35 35 35 34 31 26 24 18 13 9 15 16 14 12 16 21 29 37 40 40 37 29 36 44 45 40 44 53 54 56 59 60 59 63 64 62 59 60 58 61 62 61 62 58 59 56 55 54 54 56 56 54 55 56 57 56
55 55 55 55 54 54 53 53 52 51 53 49 45 42 39 33 34 37 35 33 29 17 20 23 22 25 27 31 30 33 31 30 29 34 34 34 29 26 23 18 15 7 11 15 12 13 16 21 29 37 39 33 31 31 33 38 40 39 52 54 55 56 51 52 59 60 62 60 59 60 58 61 62 63 62 59 59 58 59 57 56 57 56 55 54 56 56 56
55 55 55 55 54 54 53 51 51 52 51 48 40 34 33 34 36 36 35 32 22 19 24 23 26 26 28 28 29 30 31 30 31 31 34 32 27 25 24 18 16 9 8 14 14 17 21 24 29 37 36 33 33 31 31 36 36 36 50 48 52 53 53 53 56 60 60 59 60 60 59 59 61 60 61 59 59 58 58 57 55 57 57 56 55 56 56 57
55 55 55 55 54 53 51 50 50 47 45 44 39 37 36 39 42 38 36 34 24 22 26 25 28 27 30 34 31 32 32 30 27 29 28 28 25 22 22 22 19 9 7 12 14 17 20 22 28 34 34 35 35 31 29 33 34 34 44 43 45 51 53 54 57 57 57 56 57 55 51 55 60 60 60 59 58 57 57 57 54 57 56 55 55 57 58 57
55 55 55 55 53 52 48 47 44 38 38 37 35 35 37 36 37 41 36 33 21 19 27 24 29 29 30 30 32 33 33 27 27 26 25 24 25 20 21 20 19 11 6 11 13 15 14 28 34 35 34 35 34 29 28 32 33 32 35 37 49 52 54 55 54 53 50 50 56 57 48 50 60 59 60 62 60 58 56 57 55 56 56 55 55 56 56 55
55 54 54 54 53 51 50 36 44 32 31 33 34 35 34 35 50 40 36 26 20 17 16 22 26 27 30 30 31 32 26 27 28 26 22 26 25 21 15 16 16 14 8 12 16 13 16 32 31 31 34 34 31 28 27 29 30 26 34 35 40 54 54 52 54 53 54 58 58 58 58 53 53 57 60 59 58 59 57 56 56 57 56 54 55 54 56 54
54 54 54 53 53 52 50 51 41 32 31 32 33 33 36 44 47 41 35 20 14 17 12 18 20 26 24 29 30 28 30 29 25 25 25 25 28 25 23 16 13 14 13 9 10 12 15 30 30 32 34 33 30 29 25 27 27 28 29 35 42 48 52 56 57 55 53 54 53 56 56 53 53 58 61 60 57 57 57 56 56 57 57 56 55 53 54 54
54 54 54 53 53 52 52 50 46 37 32 32 33 33 35 48 40 36 33 19 17 16 22 23 25 23 25 27 28 28 28 28 25 26 28 26 27 27 17 22 16 18 16 8 6 16 21 26 29 30 31 31 30 29 24 27 27 27 32 33 41 56 54 55 50 52 52 49 48 51 52 47 51 59 59 61 59 58 58 58 56 57 56 56 54 53 53 54
54 53 53 53 51 52 50 50 46 38 35 35 35 40 38 40 38 30 23 14 15 15 17 19 20 23 27 26 26 24 28 27 29 27 27 24 26 29 27 24 17 23 24 20 17 26 25 33 33 27 28 28 28 29 24 27 27 34 33 36 42 47 54 49 53 53 53 48 48 50 55 49 49 56 57 57 57 58 57 57 58 58 58 55 54 53 53 53
53 52 52 52 50 47 47 43 40 40 38 44 39 38 40 39 34 24 15 11 14 15 16 15 17 24 24 23 19 22 25 27 27 28 25 29 25 25 26 21 19 24 25 22 21 22 26 26 28 27 26 25 27 27 27 28 27 28 35 39 42 43 54 52 52 54 46 45 51 50 51 50 48 54 59 53 56 59 60 58 58 57 57 55 54 52 53 54
51 51 52 52 51 51 38 31 42 40 42 40 38 37 37 31 31 16 11 14 15 10 10 17 19 20 23 23 21 23 22 24 27 25 24 23 21 21 23 21 25 26 24 19 16 20 23 24 26 26 30 26 26 23 23 26 27 27 36 41 39 40 44 46 49 42 42 47 48 51 52 53 49 58 60 63 60 57 61 61 58 58 57 55 52 53 55 54
51 50 50 51 52 50 45 42 43 50 45 38 38 37 35 32 19 15 10 11 10 10 14 15 13 15 21 21 21 20 20 20 25 25 23 21 21 20 22 22 21 21 20 19 14 15 20 24 23 23 22 26 26 23 22 22 25 27 35 39 40 40 38 38 39 40 44 46 46 53 54 48 55 55 55 57 59 60 61 63 60 56 56 56 54 54 54 56
50 50 52 51 51 50 45 54 51 47 40 41 40 39 32 22 18 23 13 9 8 11 11 12 14 11 19 16 19 17 12 20 21 21 22 21 19 19 18 20 17 16 17 16 12 14 17 19 19 18 17 22 24 23 21 20 25 27 32 34 39 39 38 36 37 42 37 43 50 50 46 49 47 54 57 57 57 57 59 63 65 62 57 56 54 55 55 56
49 50 53 56 52 50 49 46 49 49 44 36 33 31 22 21 17 14 13 11 9 9 11 13 10 14 15 14 18 18 12 17 20 22 21 19 18 17 16 18 20 16 15 16 12 15 12 13 14 18 16 17 18 21 22 20 20 27 31 34 36 37 37 37 36 42 40 43 48 49 45 56 50 57 57 58 60 60 61 62 63 63 59 56 54 53 54 54
50 53 53 54 48 48 46 46 48 47 43 35 30 22 17 17 15 13 11 10 10 9 6 12 8 8 12 11 15 14 16 18 20 21 20 21 17 21 20 18 17 19 18 15 16 8 14 13 11 16 14 14 15 18 19 19 21 27 30 31 34 37 34 36 36 44 40 43 43 49 49 50 54 55 57 59 58 62 62 58 57 60 61 57 56 54 55 54
53 49 43 39 39 39 46 47 46 46 41 34 26 19 17 15 13 12 22 12 9 9 9 11 9 10 10 12 14 9 15 19 21 19 19 20 17 17 18 18 19 15 19 19 19 14 13 11 14 16 14 13 15 14 16 17 19 30 29 30 33 36 36 36 33 38 35 33 38 40 46 46 48 49 55 58 57 58 63 59 56 60 61 59 55 55 55 54
49 34 39 35 37 40 46 49 45 43 38 30 21 24 17 14 14 13 14 14 12 8 9 11 11 11 12 12 11 10 16 18 20 20 14 17 18 19 20 19 20 19 18 19 20 19 15 14 11 13 13 13 16 15 12 13 16 24 29 28 29 35 34 35 33 33 37 33 38 39 40 50 48 49 52 52 55 57 58 59 56 57 61 62 56 55 55 55
49 40 29 33 37 37 44 50 44 41 33 26 22 22 12 13 14 14 15 16 12 12 12 10 10 12 12 11 11 12 16 18 19 18 18 14 14 17 14 16 19 19 19 17 18 17 16 15 13 14 12 12 14 13 12 9 11 17 21 24 29 32 35 35 33 32 31 34 32 39 39 46 53 53 53 54 53 56 57 59 57 53 57 60 61 57 55 55
37 26 29 34 35 40 52 44 39 32 29 22 18 15 15 13 14 15 14 15 12 15 14 10 13 11 14 12 12 10 13 17 16 17 15 15 12 16 13 17 13 19 18 18 17 15 16 22 13 13 13 10 10 10 9 11 8 9 16 20 30 31 35 34 33 31 29 32 32 36 39 45 53 57 54 54 55 55 57 58 60 59 57 58 63 61 57 57
34 28 31 35 31 42 43 39 28 27 24 17 15 15 15 15 11 10 15 14 12 14 15 15 13 13 14 14 12 11 11 11 16 15 12 15 12 16 16 18 17 17 18 17 15 16 20 17 16 15 10 8 6 10 10 10 11 8 9 15 24 28 28 30 34 30 28 29 31 35 34 45 54 57 54 53 54 56 57 58 59 60 59 60 63 65 62 60
39 23 30 33 33 36 33 26 24 19 17 18 15 15 17 24 11 12 10 13 14 14 16 18 18 16 16 13 13 11 12 11 11 13 12 11 13 16 16 18 19 20 17 19 13 16 22 25 19 15 15 11 9 10 11 9 12 12 10 10 19 24 30 33 31 32 30 28 29 33 36 45 55 57 57 56 56 56 59 59 59 61 62 63 62 63 65 66
28 29 36 34 33 31 29 26 29 23 17 15 15 14 14 14 10 4 10 13 12 13 16 16 18 17 17 17 16 12 14 12 13 10 11 15 16 17 17 18 18 19 19 18 15 26 34 24 21 20 23 13 12 8 11 10 11 13 15 16 14 14 22 29 31 33 33 35 32 29 33 48 54 58 57 57 59 58 60 60 62 62 63 64 62 62 67 68
32 30 32 31 33 30 25 26 21 19 18 17 17 14 12 13 13 14 14 15 17 18 17 17 17 16 18 17 17 14 18 17 15 14 16 16 16 18 17 17 19 19 18 25 27 25 20 27 25 19 24 21 13 15 11 10 10 15 17 18 16 12 14 21 29 34 31 32 33 32 36 49 56 58 58 57 58 59 58 59 60 62 64 64 63 66 68 69
36 30 29 28 30 26 22 23 22 19 19 19 16 15 12 13 14 13 15 16 17 18 19 18 18 18 18 18 18 17 17 14 19 16 15 16 16 18 17 17 17 18 23 31 47 29 26 26 29 22 20 18 17 16 19 20 16 14 17 16 17 14 17 19 23 32 29 36 39 37 38 51 55 58 56 57 56 58 59 59 61 63 64 64 64 67 69 70
26 30 20 25 23 22 23 23 21 17 20 20 17 15 12 13 13 12 12 15 16 19 18 19 18 17 18 18 18 19 18 17 16 18 19 16 15 17 17 17 17 17 33 43 40 30 26 28 30 31 28 23 26 35 29 19 17 12 10 12 13 13 13 19 26 28 27 33 36 39 46 40 53 54 54 56 56 56 58 60 60 62 64 64 66 67 68 68
37 27 27 25 23 20 20 20 18 14 20 18 24 14 13 12 11 11 8 12 16 17 19 20 18 18 19 18 17 19 18 16 20 20 19 14 18 17 17 16 16 27 46 40 38 26 32 27 26 32 32 30 24 24 19 20 17 14 10 9 11 16 18 18 21 25 35 35 33 38 42 42 46 49 54 56 55 56 57 59 61 62 63 63 63 66 67 67
29 27 30 36 28 22 20 20 20 16 17 15 19 14 14 13 13 16 13 8 12 15 14 23 19 18 19 19 22 20 21 25 23 19 20 20 21 17 15 16 15 28 36 21 22 25 28 25 22 22 20 19 19 18 19 18 16 16 12 10 13 18 23 24 25 25 31 31 32 44 45 43 41 45 55 55 55 57 57 58 62 62 63 63 64 63 63 63
33 36 30 31 24 25 25 26 22 20 17 15 21 16 14 14 16 15 14 15 11 17 15 23 20 19 20 20 22 24 31 26 25 27 28 24 21 21 20 19 17 19 15 19 23 34 30 24 23 21 20 16 17 17 19 18 16 15 14 16 19 15 18 19 20 19 22 33 33 36 40 39 49 52 47 53 56 56 58 61 60 60 62 62 62 63 63 63
38 45 34 25 26 33 27 24 20 20 19 25 26 16 18 18 16 15 12 13 18 19 14 19 19 19 20 21 29 22 28 28 28 28 27 26 20 24 22 23 22 22 20 18 21 33 29 28 27 22 25 17 17 18 17 17 21 21 24 26 24 24 24 21 19 21 24 24 30 34 40 39 54 58 52 54 59 57 59 60 58 60 61 60 61 62 63 63
48 51 52 53 33 28 29 24 22 23 23 19 21 17 17 17 19 16 17 15 16 19 19 19 19 22 21 22 23 23 23 28 28 25 24 23 22 25 23 24 21 23 22 23 25 28 26 25 23 24 24 19 17 17 18 18 20 25 29 31 31 27 26 26 28 27 31 34 35 34 37 41 56 58 57 57 57 58 59 60 60 60 59 60 60 60 61 63
50 52 52 47 41 38 28 24 24 22 21 21 19 17 18 17 17 15 21 19 15 17 20 20 22 18 25 25 26 25 23 22 22 24 25 22 20 21 20 21 20 24 24 22 26 23 28 30 26 23 22 21 18 16 15 18 22 26 31 31 33 32 37 37 38 39 40 43 40 37 39 54 53 55 55 56 54 56 59 59 60 61 61 60 63 62 62 63